Weather History for Paris / Le Bourget, France

Change the Weather History Date:

Tuesday, April 8, 2014

  Actual Average Record
Temperature  
Mean Temperature 52 °F -  
Max Temperature 58 °F 60 °F - ()
Min Temperature 46 °F 44 °F - ()
Degree Days  
Heating Degree Days 13    
Growing Degree Days 2 (Base 50)    
Moisture  
Dew Point 40 °F    
Average Humidity 60    
Maximum Humidity 81    
Minimum Humidity 35    
Precipitation  
Precipitation 0.02 in 0.07 in - ()
Sea Level Pressure  
Sea Level Pressure 30.15 in    
Wind  
Wind Speed 12 mph ()    
Max Wind Speed 20 mph    
Max Gust Speed 28 mph    
Visibility 6.5 miles    
Events Rain    
T = Trace of Precipitation, MM = Missing Value Source: Averaged Metar Reports

Daily Weather History Graph

Daily Weather History Graph

Search for Another Location

Airport:

Trip Planner

Search our weather history database for the weather conditions in past years. The results will help you decide how hot, cold, wet, or windy it might be!

Date:

Astronomy

Apr. 08, 2014 Rise Set
Actual Time 7:13 AM CEST 8:31 PM CEST
Civil Twilight 6:41 AM CEST 9:04 PM CEST
Nautical Twilight 6:01 AM CEST 9:43 PM CEST
Astronomical Twilight 5:19 AM CEST 10:26 PM CEST
Moon 1:41 PM CEST (4/8) 3:47 AM CEST (4/8)
Length of Visible Light 14h 23m
Length of Day
13h 17m
First Quarter, 60% of the Moon is Illuminated
Apr 8
First Quarter
Apr 15
Full
Apr 22
Last Quarter
Apr 29
New
May 7
First Quarter

Hourly Weather History & Observations

Time (CEST) Temp. Windchill Dew Point Humidity Pressure Visibility Wind Dir Wind Speed Gust Speed Precip Events Conditions
12:00 AM 60 °F - 51 °F 63% 29.90 in 37 mi SW 16.1 mph - -   Clear
12:00 AM 60.8 °F - 50.0 °F 68% 29.89 in 6.2 mi SW 16.1 mph - N/A   Mostly Cloudy
12:30 AM 57.2 °F - 50.0 °F 77% 29.92 in 6.2 mi West 16.1 mph 27.6 mph N/A Rain Light Rain
1:00 AM 54 °F - 47 °F 68% 29.96 in 34 mi West 19.6 mph - -   Clear
1:00 AM 53.6 °F - 46.4 °F 77% 29.95 in 6.2 mi West 19.6 mph - N/A   Overcast
1:30 AM 53.6 °F - 44.6 °F 72% 29.98 in 6.2 mi West 15.0 mph 27.6 mph N/A   Mostly Cloudy
2:00 AM 52 °F - 44 °F 64% 30.00 in 37 mi WNW 11.5 mph - -   Clear
2:00 AM 51.8 °F - 42.8 °F 71% 29.98 in 6.2 mi WNW 11.5 mph - N/A   Overcast
2:30 AM 51.8 °F - 42.8 °F 71% 30.01 in 6.2 mi WNW 15.0 mph - N/A   Mostly Cloudy
3:00 AM 50 °F - 42 °F 65% 30.03 in 37 mi West 15.0 mph - -   Clear
3:00 AM 50.0 °F - 41.0 °F 71% 30.01 in 6.2 mi West 15.0 mph - N/A   Mostly Cloudy
3:30 AM 50.0 °F - 42.8 °F 76% 30.04 in 6.2 mi West 13.8 mph - N/A   Mostly Cloudy
4:00 AM 49 °F - 42 °F 68% 30.05 in 37 mi West 11.5 mph - -   Clear
4:00 AM 48.2 °F - 41.0 °F 76% 30.04 in 6.2 mi West 11.5 mph - N/A   Mostly Cloudy
4:30 AM 48.2 °F - 41.0 °F 76% 30.04 in 6.2 mi West 9.2 mph - N/A   Partly Cloudy
5:00 AM 47 °F - 42 °F 75% 30.06 in 37 mi West 8.1 mph - -   Clear
5:00 AM 46.4 °F 42.4 °F 41.0 °F 81% 30.04 in 6.2 mi West 8.1 mph - N/A   Partly Cloudy
5:30 AM 46.4 °F 41.9 °F 41.0 °F 81% 30.06 in 6.2 mi West 9.2 mph - N/A   Unknown
6:00 AM 47 °F - 42 °F 75% 30.08 in 34 mi West 11.5 mph - -   Clear
6:00 AM 46.4 °F 41.1 °F 41.0 °F 81% 30.06 in 6.2 mi West 11.5 mph - N/A   Unknown
6:30 AM 46.4 °F 41.1 °F 41.0 °F 81% 30.06 in 6.2 mi WSW 11.5 mph - N/A   Unknown
7:00 AM 47 °F - 42 °F 76% 30.10 in 34 mi West 10.4 mph - -   Clear
7:00 AM 48.2 °F - 41.0 °F 76% 30.09 in 6.2 mi West 10.4 mph - N/A   Mostly Cloudy
7:30 AM 48.2 °F - 41.0 °F 76% 30.09 in 6.2 mi WSW 9.2 mph - N/A   Unknown
8:00 AM 47 °F - 41 °F 73% 30.12 in 34 mi West 11.5 mph - -   Clear
8:00 AM 48.2 °F - 41.0 °F 76% 30.09 in 6.2 mi West 11.5 mph - N/A   Mostly Cloudy
8:30 AM 48.2 °F - 41.0 °F 76% 30.12 in 6.2 mi West 11.5 mph - N/A   Partly Cloudy
9:00 AM 50 °F - 42 °F 65% 30.15 in 12 mi West 15.0 mph - -   Clear
9:00 AM 50.0 °F - 42.8 °F 76% 30.12 in 6.2 mi West 15.0 mph - N/A   Scattered Clouds
9:30 AM 50.0 °F - 41.0 °F 71% 30.15 in 6.2 mi West 12.7 mph - N/A   Mostly Cloudy
10:00 AM 50 °F - 40 °F 59% 30.17 in 28 mi West 13.8 mph - -   Clear
10:00 AM 50.0 °F - 39.2 °F 66% 30.15 in 6.2 mi West 13.8 mph - N/A   Mostly Cloudy
10:30 AM 50.0 °F - 41.0 °F 71% 30.18 in 6.2 mi West 12.7 mph - N/A   Mostly Cloudy
11:00 AM 53 °F - 38 °F 46% 30.19 in 25 mi West 13.8 mph - -   Clear
11:00 AM 51.8 °F - 37.4 °F 58% 30.18 in 6.2 mi West 13.8 mph - N/A   Mostly Cloudy
11:30 AM 53.6 °F - 39.2 °F 58% 30.18 in 6.2 mi West 11.5 mph - N/A   Mostly Cloudy
12:00 PM 52 °F - 37 °F 46% 30.20 in 12 mi West 15.0 mph - -   Clear
12:00 PM 51.8 °F - 37.4 °F 58% 30.18 in 6.2 mi West 15.0 mph - N/A   Mostly Cloudy
12:30 PM 53.6 °F - 37.4 °F 54% 30.18 in 6.2 mi West 12.7 mph - N/A   Mostly Cloudy
1:00 PM 54 °F - 38 °F 43% 30.21 in 31 mi West 15.0 mph - -   Clear
1:00 PM 53.6 °F - 37.4 °F 54% 30.18 in 6.2 mi West 15.0 mph - N/A   Mostly Cloudy
1:30 PM 55.4 °F - 35.6 °F 47% 30.18 in 6.2 mi West 15.0 mph - N/A   Mostly Cloudy
2:00 PM 55 °F - 36 °F 36% 30.22 in 12 mi West 17.3 mph - -   Clear
2:00 PM 55.4 °F - 35.6 °F 47% 30.21 in 6.2 mi West 17.3 mph - N/A   Mostly Cloudy
2:30 PM 55.4 °F - 35.6 °F 47% 30.21 in 6.2 mi West 11.5 mph - N/A   Mostly Cloudy
3:00 PM 57 °F - 37 °F 36% 30.22 in 31 mi West 16.1 mph - -   Clear
3:00 PM 57.2 °F - 37.4 °F 48% 30.21 in 6.2 mi West 16.1 mph - N/A   Unknown
3:30 PM 57.2 °F - 37.4 °F 48% 30.21 in 6.2 mi West 12.7 mph - N/A   Unknown
4:00 PM 56 °F - 36 °F 35% 30.22 in 31 mi West 15.0 mph - -   Clear
4:00 PM 55.4 °F - 35.6 °F 47% 30.21 in 6.2 mi West 15.0 mph - N/A   Unknown
4:30 PM 57.2 °F - 37.4 °F 48% 30.21 in 6.2 mi West 13.8 mph - N/A   Unknown
5:00 PM 57 °F - 38 °F 36% 30.22 in 34 mi West 11.5 mph - -   Clear
5:00 PM 57.2 °F - 37.4 °F 48% 30.21 in 6.2 mi West 11.5 mph - N/A   Unknown
5:30 PM 55.4 °F - 37.4 °F 51% 30.21 in 6.2 mi West 11.5 mph - N/A   Overcast
6:00 PM 55 °F - 38 °F 42% 30.23 in 34 mi West 11.5 mph - -   Clear
6:00 PM 55.4 °F - 39.2 °F 54% 30.21 in 6.2 mi West 11.5 mph - N/A   Overcast
6:30 PM 55.4 °F - 39.2 °F 54% 30.21 in 6.2 mi WNW 11.5 mph - N/A   Mostly Cloudy
7:00 PM 55 °F - 36 °F 38% 30.25 in 37 mi WNW 9.2 mph - -   Clear
7:00 PM 55.4 °F - 37.4 °F 51% 30.24 in 6.2 mi WNW 9.2 mph - N/A   Unknown
7:30 PM 55.4 °F - 35.6 °F 47% 30.24 in 6.2 mi WNW 11.5 mph - N/A   Unknown
8:00 PM 54 °F - 36 °F 40% 30.27 in 37 mi WNW 9.2 mph - -   Clear
8:00 PM 53.6 °F - 37.4 °F 54% 30.24 in 6.2 mi WNW 9.2 mph - N/A   Unknown
8:30 PM 53.6 °F - 37.4 °F 54% 30.27 in 6.2 mi NW 8.1 mph - N/A   Unknown
9:00 PM 52 °F - 37 °F 46% 30.30 in 37 mi WNW 10.4 mph - -   Clear
9:00 PM 51.8 °F - 37.4 °F 58% 30.27 in 6.2 mi WNW 10.4 mph - N/A   Partly Cloudy
9:30 PM 51.8 °F - 37.4 °F 58% 30.30 in 6.2 mi NW 6.9 mph - N/A   Unknown
10:00 PM 50 °F - 38 °F 52% 30.32 in 34 mi NW 3.5 mph - -   Clear
10:00 PM 50.0 °F - 37.4 °F 62% 30.30 in 6.2 mi Variable 3.5 mph - N/A   Unknown
10:30 PM 48.2 °F - 37.4 °F 66% 30.30 in 6.2 mi WNW 5.8 mph - N/A   Unknown
11:00 PM 48 °F - 37 °F 55% 30.34 in 37 mi WNW 4.6 mph - -   Clear
11:00 PM 48.2 °F - 37.4 °F 66% 30.33 in 6.2 mi WNW 4.6 mph - N/A   Unknown
11:30 PM 48.2 °F - 37.4 °F 66% 30.33 in 6.2 mi WNW 3.5 mph - N/A   Unknown